Location: Brest
(52.1000°N, 23.7000°E)
Time: 14:15:11
(UTC+03:00)

ISS - Visible Passes

Search period start: 29 May 2017 00:00
Search period end: 08 June 2017 00:00
Orbit: 402 x 408 km, 51.6° (Epoch: 29 May)

Date Brightness Start Highest point End Pass type
(mag) Time Alt. Az. Time Alt. Az. Time Alt. Az.
29 May -3.9 00:16:35 10° W 00:19:54 83° S 00:23:12 10° E visible
29 May -3.3 01:53:07 10° W 01:56:00 39° SW 01:56:00 39° SW visible
29 May -3.9 23:24:33 10° W 23:27:52 85° S 23:31:10 10° E visible
30 May -3.8 01:01:03 10° W 01:04:17 54° SSW 01:05:09 39° SSE visible
30 May -3.9 22:32:31 10° W 22:35:49 80° S 22:39:07 10° E visible
31 May -3.9 00:09:00 10° W 00:12:17 69° SSW 00:14:28 19° ESE visible
31 May -2.0 01:45:43 10° W 01:47:06 18° WSW 01:47:06 18° WSW visible
31 May -3.9 23:16:55 10° W 23:20:14 80° S 23:23:32 10° E visible
01 Jun -3.1 00:53:29 10° W 00:56:32 34° SSW 00:56:32 34° SSW visible
01 Jun -3.8 22:24:51 10° W 22:28:09 85° S 22:31:28 10° E visible
02 Jun -3.6 00:01:21 10° W 00:04:34 48° SSW 00:06:00 27° SE visible
02 Jun -3.8 23:09:15 10° W 23:12:32 63° SSW 23:15:32 12° ESE visible
03 Jun -2.2 00:46:04 10° W 00:48:10 20° SW 00:48:10 20° SW visible
03 Jun -2.8 23:53:45 10° W 23:56:42 30° SSW 23:57:43 25° S visible
04 Jun -3.3 23:01:34 10° W 23:04:42 43° SSW 23:07:18 14° SE visible
05 Jun -1.4 00:39:18 10° WSW 00:39:56 11° SW 00:39:56 11° SW visible
05 Jun -2.0 23:46:21 10° W 23:48:42 18° SW 23:49:33 17° SSW visible
06 Jun -2.5 22:53:55 10° W 22:56:46 26° SSW 22:59:11 12° SSE visible
